Weather History for LIPS - April, 2014

Change the Weather History Date:

Tuesday, April 22, 2014

  Actual Average Record
Temperature  
Mean Temperature 56 °F -  
Max Temperature 70 °F 70 °F 77 °F (2002)
Min Temperature 43 °F 50 °F 41 °F (1997)
Degree Days  
Heating Degree Days 8    
Growing Degree Days 6 (Base 50)    
Moisture  
Dew Point 52 °F    
Average Humidity 77    
Maximum Humidity 94    
Minimum Humidity 44    
Precipitation  
Precipitation 0.00 in 0.13 in - ()
Sea Level Pressure  
Sea Level Pressure 29.90 in    
Wind  
Wind Speed 2 mph ()    
Max Wind Speed 8 mph    
Max Gust Speed -    
Visibility 5.9 miles    
Events Fog , Rain    
Averages and records for this station are not official NWS values.
T = Trace of Precipitation, MM = Missing Value Source: Averaged Metar Reports

Daily Weather History Graph

Daily Weather History Graph

Search for Another Location

Airport or City:

Trip Planner

Search our weather history database for the weather conditions in past years. The results will help you decide how hot, cold, wet, or windy it might be!

Date:

Astronomy

Apr. 22, 2014 Rise Set
Actual Time 6:14 AM CEST 8:06 PM CEST
Civil Twilight 5:42 AM CEST 8:38 PM CEST
Nautical Twilight 5:03 AM CEST 9:17 PM CEST
Astronomical Twilight 4:21 AM CEST 10:00 PM CEST
Moon 2:12 AM CEST (4/22) 12:28 PM CEST (4/22)
Length of Visible Light 14h 56m
Length of Day
13h 52m
Waning Gibbous, 49% of the Moon is Illuminated
Apr 22
Waning Gibbous
Apr 29
New
May 7
First Quarter
May 14
Full
May 21
Last Quarter

Hourly Weather History & Observations

Time (CEST) Temp. Dew Point Humidity Pressure Visibility Wind Dir Wind Speed Gust Speed Precip Events Conditions
12:00 AM 55 °F 53 °F 91% 29.80 in 5 mi Calm Calm - -   Mist
12:55 AM 53.6 °F 51.8 °F 94% 29.80 in 5.0 mi Calm Calm - N/A   Scattered Clouds
1:00 AM 54 °F 52 °F 90% 29.80 in 5 mi Calm Calm - -   Mist
1:55 AM 51.8 °F 50.0 °F 94% 29.80 in 2.5 mi Calm Calm - N/A   Mostly Cloudy
2:00 AM 52 °F 49 °F 88% 29.82 in 2 mi Calm Calm - -   Mist
3:55 AM 50.0 °F 46.4 °F 87% 29.80 in 0.1 mi Calm Calm - N/A Fog Fog
4:00 AM 49 °F 47 °F 89% 29.82 in 0 mi Calm Calm - - Fog Partial Fog
4:55 AM 46.4 °F 44.6 °F 93% 29.80 in 0.1 mi Calm Calm - N/A Fog Fog
5:00 AM 46 °F 44 °F 89% 29.83 in 0 mi Calm Calm - - Fog Partial Fog
5:55 AM 46.4 °F 42.8 °F 87% 29.80 in - Calm Calm - N/A   Clear
6:00 AM 46 °F 43 °F 87% 29.83 in 7 mi Calm Calm - - Fog Light Fog
6:55 AM 46.4 °F 42.8 °F 87% 29.83 in - Calm Calm - N/A   Clear
7:00 AM 46 °F 44 °F 89% 29.84 in 9 mi Calm Calm - -  
7:55 AM 48.2 °F 46.4 °F 93% 29.86 in - Calm Calm - N/A   Clear
8:00 AM 49 °F 46 °F 85% 29.87 in 12 mi Calm Calm - -   Partly Cloudy
8:55 AM 57.2 °F 53.6 °F 88% 29.89 in - ENE 2.3 mph - N/A   Clear
9:00 AM 57 °F 54 °F 85% 29.91 in 9 mi ENE 2.3 mph - -  
9:55 AM 60.8 °F 53.6 °F 77% 29.89 in 6.2 mi SSE 4.6 mph - N/A   Partly Cloudy
10:00 AM 62 °F 53 °F 65% 29.90 in 9 mi SSE 4.6 mph - -   Scattered Clouds
10:55 AM 64.4 °F 53.6 °F 68% 29.92 in 6.2 mi SSW 3.5 mph - N/A   Mostly Cloudy
11:00 AM 64 °F 53 °F 58% 29.92 in 9 mi SSW 3.5 mph - -   Mostly Cloudy
11:55 AM 64.4 °F 51.8 °F 64% 29.92 in 6.2 mi West 4.6 mph - N/A   Mostly Cloudy
12:55 PM 64.4 °F 51.8 °F 64% 29.92 in 6.2 mi West 4.6 mph - N/A   Mostly Cloudy
1:00 PM 65 °F 51 °F 50% 29.93 in 7 mi West 4.6 mph - -   Mostly Cloudy
1:55 PM 68.0 °F 51.8 °F 56% 29.92 in 6.2 mi SSW 5.8 mph - N/A   Mostly Cloudy
2:00 PM 69 °F 52 °F 44% 29.93 in 7 mi SSW 5.8 mph - -   Mostly Cloudy
2:55 PM 68.0 °F 51.8 °F 56% 29.92 in 6.2 mi SSW 6.9 mph - N/A   Mostly Cloudy
3:00 PM 69 °F 52 °F 44% 29.93 in 7 mi SSW 6.9 mph - -   Mostly Cloudy
3:55 PM 69.8 °F 53.6 °F 56% 29.92 in 6.2 mi South 8.1 mph - N/A   Mostly Cloudy
4:00 PM 70 °F 54 °F 47% 29.93 in 7 mi South 8.1 mph - -   Mostly Cloudy
4:55 PM 66.2 °F 53.6 °F 64% 29.92 in 6.2 mi SSW 6.9 mph - N/A   Mostly Cloudy
5:00 PM 67 °F 54 °F 54% 29.93 in 7 mi SSW 6.9 mph - -   Mostly Cloudy
5:55 PM 64.4 °F 57.2 °F 77% 29.92 in 6.2 mi South 8.1 mph - N/A   Mostly Cloudy
6:00 PM 65 °F 57 °F 67% 29.94 in 7 mi South 8.1 mph - -   Mostly Cloudy
6:55 PM 64.4 °F 59.0 °F 83% 29.92 in 6.2 mi SSW 4.6 mph - N/A   Scattered Clouds
7:00 PM 64 °F 59 °F 79% 29.94 in 7 mi SSW 4.6 mph - - Rain Light Rain
7:55 PM 62.6 °F 57.2 °F 82% 29.95 in 6.2 mi SSE 4.6 mph - N/A   Scattered Clouds
8:00 PM 62 °F 57 °F 80% 29.97 in 6 mi SSE 4.6 mph - -   Partly Cloudy
8:55 PM 60.8 °F 57.2 °F 88% 29.95 in 6.2 mi South 3.5 mph - N/A   Scattered Clouds
9:00 PM 62 °F 57 °F 79% 29.97 in 6 mi South 3.5 mph - -   Partly Cloudy
9:55 PM 53.6 °F 51.8 °F 94% 29.98 in - NE 3.5 mph - N/A   Clear
10:00 PM 54 °F 52 °F 90% 30.00 in 6 mi NE 3.5 mph - -  
10:55 PM 53.6 °F 51.8 °F 94% 30.01 in - NE 2.3 mph - N/A   Clear
11:00 PM 54 °F 53 °F 94% 30.04 in 6 mi NE 2.3 mph - -   Clear
11:55 PM 53.6 °F 51.8 °F 94% 30.01 in 6.2 mi NNE 2.3 mph - N/A   Mostly Cloudy